Location: Wells
(51.2093°N, 2.6446°W)
Time: 12:27:39
(UTC+01:00)

CUBEBUG 2 - Pass Details

Date: 15 March 2026
Orbit: 548 x 627 km, 97.9° (Epoch: 13 April)

Event Time Altitude Azimuth Distance (km) Brightness Sun altitude
Rises 03:31:22 0° 7° (N) 2,888 ? -26.7°
Reaches altitude 10° 03:33:41 10° 358° (N) 1,990 ? -26.4°
Enters shadow 03:35:50 24° 337° (NNW) 1,289 ? -26.1°
